Location: Campavaglio
(41.1333°N, 9.2333°E)
Time: 00:39:12
(UTC+00:00)

Cosmos 2221 - Pass Details

Date: 07 June 2020
Orbit: 593 x 615 km, 82.5° (Epoch: 15 July)

Event Time Altitude Azimuth Distance (km) Brightness Sun altitude
Rises 00:31:16 0° 4° (N) 2,882 7.3 -24.1°
Reaches altitude 10° 00:33:48 10° 18° (NNE) 1,975 6.2 -23.9°
Maximum altitude 00:37:28 26° 74° (ENE) 1,230 4.4 -23.7°
Enters shadow 00:39:29 18° 114° (ESE) 1,495 4.4 -23.6°
